DELTA 1 DEB, 7021

Orbit data source: Space-Track

DELTA 1 DEB, 7021 is space debris in SSO originally from a launch on Tue, 06 Nov 1973 UTC launched from the Air Force Western Test Range (AFWTR). Debris objects in space refer to the collection of defunct objects orbiting the Earth. Examples of debris include non-operational satellites, rocket bodies, and fragments generated from explosions, collisions, or faulty payload assembly.

Loading next visibility...
Identifier
7021, 1973-086M
Orbit
SSO
Country
Flag of USUS
Related business
Manufacturer
Unknown
Mission
Spacecraft
Bus & Motor
Unknown
Mass
Unknown
Launch date (UTC)
1973-11-06 (52 years ago)
Launch vehicle
Unknown
Launch site
Air Force Western Test Range (AFWTR)
Object type
Payload
Rocket body
Debris
Shape & HBR
Unknown shape, 0.2 m
Radar Cross Section
Medium (>0.1 m² and <1 m²)

Expand to show TLE details & history
Last TLE update: 1 day ago

TLE from 1 day ago
0 DELTA 1 DEB
1 07021U 73086M   25292.09590785  .00000947  00000-0  76871-2 0  9998
2 07021 101.7003 338.8707 0183131 311.5619  73.8492 12.32763909319573
Epoch: 2025-10-19T02:18Z
TLE epoch observation values (Epoch: 2025-10-19T02:18:06.438Z)
Latitude
26.85922°
Longitude
-89.46431°
Altitude
1,502.532 km
Speed
7.132 km/s
True Right ascension
22h 11m 31s
True Declination
26° 44' 02"
Sunlit
Object was in full shadow at epoch
Visualization orbit readout
Latitude
Unknown
Longitude
Unknown
Altitude
Unknown
Speed
Unknown
Apparent Right ascension
Unknown
Apparent Declination
Unknown
Sunlit
N/A
Visualization observer readout
Local Sidereal Time
21:39:31
Azimuth
Unknown
Elevation
Unknown
Doppler factor
Unknown
Orbital elements
Apogee altitude
1,679.907 km
Perigee altitude
1,390.079 km
Semi-major axis
7,913.13 km
Eccentricity
0.01831
Inclination
101.7003°
RAAN
338.8707°
Arg. of periapsis
311.5619°
True anomaly
75.87739°
Mean anomaly
73.8492°
Eccentric anomaly
74.86205°
Mean motion
3.08333 °/min
Orbital period
116.76 mins
BSTAR
0.0076871
Loading maneuver chart data...
Computing Atmospheric mass density...
Loading historical data...
Loading historical data...
Loading historical data...
Loading historical data...
Loading historical data...
Loading historical data...
Loading historical data...

Documentation

Showing up to 5 results
|